ZHEDA PIXING 1B

导读

ZHEDA PIXING 1B(浙大屏星1B,隶属于皮星一号A任务)是中国浙江大学微小卫星研究中心自主研发的公斤级皮卫星,于北京时间2010年9月22日由长征二号丁运载火箭发射升空。该卫星为15厘米立方体构型,质量约3.5千克,搭载了浙大自研全景成像镜头开展对地观测实验,运行于645公里高度近地圆轨道,是中国首批公斤级微小卫星,验证了低成本微小卫星一体化研制技术,为国内高校微小卫星发展奠定了基础。

基本信息
目录编号:
37166
目录名称:
ZHEDA PIXING 1B
国际标识:
2010-047B
轨道中心:
EARTH
卫星名称:
ZHEDA PIXING 1B
卫星全名:
--
卫星状态:
在轨 (已飞行5833 天)
发射日期:
2010-09-22 UTC
国别 :
中国 (CN)
星等 :
--
该卫星已列入 空间交会检测服务 Space Conjunction Data Service (SCDS) ,当前飞行风险评估等级: 无高风险
轨道信息
数据来源 国际轨道数据
星历时间: 2026-09-11T13:58:47+0800
11小时前
查看轨道信息
半长轴: 6971.522km
偏心率: 0.0019565
轨道倾角: 97.958°
近地点辐角 2.002°
升交点赤经 233.139°
平近点角 358.127°
近地点: 579.745km
远地点: 607.025km
周期: 96.550分钟
每日圈数: 14.914592
详细信息
使用方式:
暂无
2D轨道图
3D轨道图
轨道高度分析图
轨道倾角分析图
轨道综合分析图
查看轨道综合分析图
交会数据列表
事件ID 空间交会对象 最接近时刻(TCA) 交会距离 交会风险概率(CRP) 交会风险指数(CRI) 操作
CDM_260912-000703-716606-992527
ET-001A (69925)
2026-09-12T
00:07:14+0000
2.044 km
极远距离
2.065024E-6 低风险 0.41
CDM_260914-040803-716606-512621
2026-09-14T
04:08:03+0000
2.653 km
极远距离
1.559531E-6 低风险 0.39
与全量物体交会距离演化趋势
与全量物体交会风险概率演化趋势